Location: Kingston, Ontario, Canada
(44.2796°N, 76.5445°W)
Time: 17:42:23
(UTC-04:00)

ISS - Visible Passes

Search period start: 25 March 2017 00:00
Search period end: 04 April 2017 00:00
Orbit: 399 x 409 km, 51.6° (Epoch: 26 March)

Date Brightness Start Highest point End Pass type
(mag) Time Alt. Az. Time Alt. Az. Time Alt. Az.
26 Mar -1.6 21:17:29 10° SSW 21:18:25 17° SSW 21:18:25 17° SSW visible
27 Mar -2.6 20:25:42 10° S 20:28:21 23° SE 20:29:20 20° ESE visible
27 Mar -1.0 22:01:25 10° WSW 22:02:03 15° WSW 22:02:03 15° WSW visible
28 Mar -3.9 21:08:57 10° WSW 21:12:12 88° NNW 21:12:41 62° NE visible
29 Mar -3.6 20:16:41 10° SW 20:19:51 51° SE 20:23:03 10° ENE visible
29 Mar -1.9 21:53:26 10° W 21:55:46 29° NW 21:55:46 29° NW visible
30 Mar -2.9 21:00:45 10° W 21:03:55 46° NNW 21:05:56 19° NE visible
30 Mar -0.3 22:38:17 10° WNW 22:38:36 12° NW 22:38:36 12° NW visible
31 Mar -3.6 20:08:11 10° WSW 20:11:26 74° NNW 20:14:43 10° ENE visible
31 Mar -1.8 21:45:32 10° WNW 21:48:18 24° N 21:48:35 24° N visible
01 Apr -2.1 20:52:45 10° W 20:55:41 30° NNW 20:58:26 11° NE visible
01 Apr -0.7 22:30:11 10° NW 22:31:06 15° NW 22:31:06 15° NW visible
02 Apr -2.6 20:00:00 10° W 20:03:06 40° NNW 20:06:13 10° NE visible
02 Apr -1.7 21:37:31 10° NW 21:40:09 22° N 21:40:50 20° NNE visible
03 Apr -1.7 20:44:46 10° WNW 20:47:29 23° N 20:50:12 10° NE visible
03 Apr -1.0 22:21:50 10° NW 22:23:10 19° NNW 22:23:10 19° NNW visible
